{"data":{"norad_id":36868,"epoch":"2026-05-24T22:45:09.842112Z","epoch_age_seconds":76559,"freshness":"FRESH","line1":"1 36868U 10039A   26144.94803058  .00000146  00000+0  00000+0 0  9997","line2":"2 36868   8.1640  68.3577 0004232 343.3717 202.1238  1.00277383 53420","mean_motion":1.00277383,"eccentricity":0.0004232,"inclination_deg":8.164,"raan_deg":68.3577,"arg_perigee_deg":343.3717,"mean_anomaly_deg":202.1238,"bstar":0,"rev_number":5342,"period_min":1436.0167337036,"perigee_km":35767.182261125,"apogee_km":35802.869162044,"semimajor_km":42163.162711584,"source":"CELESTRAK","updated_at":"2026-05-25T13:38:13.895254Z"}}